Probability
0 0 0 0 0 0 0 0 0 0 0 0 0 0 0 0 0 0 0 0 0 0 0 0 0 0 0 0 0 0 0 0 0 0 0 0 0 0 0 0 0 0 0 0
0 0 0 0 0 0 0 0 0 0 0 0 0 0 0 0 0 0 0 0 0 0 0 0 0 0 0 0 0 0 0 0 0 0 0 0 0 0 0 0 0 0 0 0
0 0 0 0 0 0 0 0 0 0 0 0 0 0 0 0 0 0 0 0 0 0 0 0 0 0 0 0 0 0 0 0 0 0 0 0 0 0 0 0 0 0 0 0
0 0 0 0 0 0 0 0 0 0 0 0 0 0 0 0 0 0 0 0 0 0 0 0 0 0 0 0 0 0 0 0 0 0 0 0 0 0 0 0 0 0 0 0
0 0 0 0 0 0 0 0 0 0 0 0 0 0 0 0 0 0 0 0 0 0 0 0 0 0 0 0 0 0 0 0 0 0 0 0 0 0 0 0 0 0 0 0
0 0 0 0 0 0 0 0 0 0 0 0 0 0 0 0 0 0 0 0 0 0 0 0 0 0 0 0 0 0 0 0 0 0 0 0 0 0 0 0 0 0 0 0
0 0 0 0 0 0 0 0 0 0 0 0 0 0 0 0 0 0 0 0 0 0 0 0 0 0 0 0 0 0 0 0 0 0 0 0 0 0 0 0 0 0 0 0
0 0 0 0 0 0 0 0 0 0 0 0 0 0 0 0 0 0 0 0 0 0 0 0 0 0 0 0 0 0 0 0 0 0 0 0 0 0 0 0 0 0 0 0
0 0 0 0 0 0 0 0 0 0 0 0 0 0 0 0 0 0 0 0 0 0 0 0 0 0 0 0 0 0 0 0 0 0 0 0 0 0 0 0 0 0 0 0
0 0 0 0 0 0 0 0 0 0 0 0 0 0 0 0 0 0 0 3 0 0 0 0 0 0 0 0 0 0 0 0 0 0 0 0 0 0 0 0 0 0 0 0
0 0 0 0 0 0 0 0 0 0 0 0 0 0 0 0 0 0 0 0 0 0 0 0 0 0 0 0 0 3 3 0 0 0 0 0 0 0 0 0 0 0 0 0
0 0 0 0 0 0 0 0 0 0 0 0 0 0 0 0 0 0 0 0 0 0 0 0 3 3 0 0 0 3 3 3 0 0 0 0 0 0 0 0 0 0 0 0
0 0 0 0 0 0 0 0 0 0 0 0 0 0 0 0 0 0 0 0 0 0 0 0 0 3 0 0 0 0 3 3 3 3 0 0 0 0 0 0 0 0 0 0
0 0 0 0 0 0 0 0 0 0 0 0 0 0 0 0 0 0 0 0 3 0 0 0 0 0 0 0 0 0 3 3 3 3 0 0 0 0 0 0 0 0 0 0
0 0 0 0 0 0 0 0 0 0 0 0 0 0 0 0 0 0 0 0 0 0 0 0 0 0 0 0 0 0 0 0 3 3 3 3 0 0 0 0 0 0 0 0
0 0 0 0 0 0 0 0 0 0 0 0 0 0 0 0 0 0 0 0 0 0 0 0 0 0 0 0 0 0 0 0 3 6 3 3 0 0 0 0 0 0 0 0
0 0 0 0 0 0 0 0 0 0 0 0 0 0 0 0 0 0 0 3 0 0 0 0 0 0 0 0 0 0 0 0 3 3 3 3 0 0 0 0 0 0 0 0
0 0 0 0 0 0 0 0 0 0 0 0 0 0 0 0 0 0 0 0 0 0 0 0 0 0 0 0 0 0 0 0 0 3 3 3 0 0 0 0 0 0 0 0
0 0 0 0 0 0 0 0 0 0 0 0 0 0 0 0 0 0 0 0 0 0 0 0 0 0 0 0 0 0 0 0 0 3 3 3 0 0 0 0 0 0 0 0
0 0 0 0 0 0 0 0 0 0 0 0 0 0 0 0 0 0 0 0 0 0 0 0 0 0 0 0 0 0 0 0 0 0 0 3 0 0 0 0 0 0 0 0
0 0 0 0 0 0 0 0 0 0 0 0 0 0 0 0 0 0 0 0 0 0 0 0 0 0 0 0 0 0 0 0 0 0 0 0 0 0 0 0 0 0 0 0
0 0 0 0 0 0 0 0 0 0 0 0 0 0 0 0 0 0 0 0 0 0 0 0 0 0 0 0 0 0 0 0 0 0 0 0 0 0 0 0 0 0 0 0
0 0 0 0 0 0 0 0 0 0 0 0 0 0 0 0 0 0 0 0 0 0 0 0 0 0 0 0 0 0 0 0 0 0 0 0 0 0 0 0 0 0 0 0
0 0 0 0 0 0 0 0 0 0 0 0 0 0 0 0 0 0 0 0 0 0 0 0 0 0 0 0 0 0 0 0 0 0 0 0 0 0 0 0 0 0 0 0
0 0 0 0 0 0 0 0 0 0 0 0 0 0 0 0 0 0 0 0 0 0 0 0 0 0 0 0 0 0 0 0 0 0 0 0 0 0 0 0 0 0 0 0
0 0 0 0 0 0 0 0 0 0 0 0 0 0 0 0 0 0 0 0 0 0 0 0 0 0 0 0 0 0 0 0 0 0 0 0 0 0 0 0 0 0 0 0
Height
5841 5842 5842 5843 5843 5844 5845 5846 5847 5848 5848 5850 5851 5853 5854 5855 5856 5858 5859 5861 5862 5864 5865 5867 5869 5870 5872 5874 5876 5877 5879 5881 5882 5883 5884 5885 5886 5887 5888 5888 5888 5887 5887 5886
5839 5840 5840 5840 5841 5841 5842 5843 5844 5845 5846 5847 5849 5850 5851 5852 5854 5855 5857 5859 5860 5861 5863 5864 5866 5868 5870 5871 5873 5875 5876 5878 5880 5881 5882 5883 5884 5885 5886 5886 5886 5885 5885 5885
5836 5838 5837 5838 5838 5839 5840 5841 5842 5843 5844 5845 5846 5848 5849 5850 5851 5853 5854 5856 5857 5859 5860 5862 5863 5865 5867 5869 5870 5872 5874 5876 5877 5879 5880 5881 5882 5882 5883 5884 5884 5884 5883 5883
5833 5834 5834 5835 5836 5836 5837 5838 5839 5840 5841 5842 5844 5845 5846 5847 5848 5850 5852 5853 5855 5856 5857 5859 5861 5862 5864 5866 5868 5870 5871 5873 5875 5877 5878 5879 5880 5880 5881 5882 5882 5882 5881 5881
5831 5832 5832 5832 5833 5834 5835 5835 5836 5837 5838 5839 5840 5842 5844 5844 5846 5847 5849 5850 5852 5854 5855 5856 5858 5860 5861 5863 5865 5867 5869 5871 5873 5874 5875 5876 5877 5878 5878 5879 5879 5879 5879 5879
5828 5829 5829 5830 5831 5832 5832 5833 5834 5834 5835 5837 5837 5839 5841 5842 5843 5844 5846 5847 5849 5851 5852 5853 5855 5857 5859 5861 5862 5865 5866 5868 5870 5872 5873 5874 5875 5875 5876 5877 5877 5877 5877 5877
5826 5826 5827 5828 5829 5829 5830 5831 5832 5832 5833 5834 5835 5835 5838 5839 5840 5841 5843 5844 5846 5847 5849 5850 5852 5854 5856 5858 5860 5862 5864 5865 5867 5869 5870 5871 5872 5873 5874 5875 5875 5875 5875 5876
5823 5824 5825 5826 5827 5827 5828 5829 5831 5831 5831 5831 5832 5832 5835 5836 5837 5838 5839 5841 5842 5844 5846 5847 5849 5851 5853 5855 5857 5859 5861 5862 5864 5866 5867 5869 5869 5871 5872 5872 5873 5873 5873 5873
5820 5822 5823 5823 5824 5825 5825 5826 5827 5828 5828 5829 5829 5830 5832 5833 5834 5835 5837 5838 5839 5841 5842 5844 5846 5848 5850 5852 5854 5856 5858 5859 5861 5863 5864 5866 5867 5868 5869 5870 5870 5871 5871 5871
5818 5819 5820 5821 5821 5822 5823 5823 5824 5825 5826 5826 5827 5827 5829 5829 5831 5832 5834 5835 5836 5837 5839 5841 5842 5845 5847 5848 5850 5852 5854 5856 5858 5859 5861 5863 5864 5865 5866 5867 5868 5868 5869 5869
5814 5816 5817 5818 5818 5819 5820 5821 5821 5822 5823 5824 5824 5828 5826 5827 5828 5829 5830 5832 5833 5834 5835 5837 5839 5841 5843 5845 5847 5849 5851 5853 5855 5856 5858 5860 5861 5863 5864 5864 5865 5866 5866 5866
5811 5813 5813 5815 5816 5816 5817 5818 5819 5820 5821 5821 5821 5826 5824 5825 5826 5827 5828 5829 5830 5831 5832 5834 5836 5838 5840 5842 5844 5846 5848 5850 5852 5853 5855 5857 5859 5860 5861 5862 5863 5863 5863 5864
5808 5809 5810 5811 5814 5813 5813 5814 5815 5817 5818 5818 5819 5823 5821 5822 5823 5824 5825 5826 5827 5827 5829 5831 5833 5835 5837 5839 5841 5843 5845 5847 5849 5851 5852 5854 5856 5857 5858 5859 5860 5860 5861 5861
5804 5805 5808 5809 5810 5810 5811 5812 5812 5813 5814 5815 5816 5817 5818 5819 5820 5821 5822 5823 5824 5825 5826 5827 5829 5831 5833 5835 5838 5840 5842 5844 5846 5848 5849 5851 5852 5854 5855 5856 5857 5857 5858 5858
5800 5802 5803 5805 5806 5807 5807 5808 5809 5810 5811 5812 5813 5814 5815 5816 5817 5818 5819 5820 5821 5822 5823 5824 5826 5828 5830 5832 5834 5836 5838 5841 5842 5844 5846 5847 5849 5850 5852 5853 5853 5854 5854 5855
5796 5798 5799 5801 5802 5803 5804 5805 5805 5806 5808 5809 5810 5811 5812 5812 5813 5815 5816 5817 5818 5819 5821 5822 5824 5825 5827 5829 5831 5833 5835 5837 5839 5840 5842 5844 5845 5847 5848 5849 5850 5850 5851 5851
5792 5794 5796 5797 5798 5799 5800 5802 5802 5803 5804 5806 5807 5809 5809 5809 5810 5812 5813 5814 5815 5817 5818 5820 5821 5823 5824 5826 5828 5829 5831 5833 5835 5836 5838 5840 5841 5843 5844 5845 5846 5846 5847 5847
5788 5790 5791 5792 5794 5795 5800 5799 5799 5800 5801 5802 5803 5804 5805 5806 5807 5808 5810 5811 5813 5814 5815 5817 5818 5820 5821 5823 5824 5826 5828 5829 5831 5832 5834 5836 5837 5839 5840 5841 5842 5843 5843 5843
5784 5786 5787 5788 5789 5791 5794 5795 5795 5796 5797 5798 5799 5800 5801 5802 5804 5805 5807 5808 5809 5810 5811 5813 5814 5816 5818 5819 5821 5822 5824 5825 5827 5828 5830 5831 5833 5834 5836 5837 5838 5838 5839 5839
5779 5781 5783 5784 5785 5787 5791 5791 5792 5793 5793 5795 5796 5797 5798 5799 5801 5803 5804 5804 5805 5806 5808 5809 5810 5812 5814 5815 5817 5818 5819 5821 5823 5824 5825 5827 5828 5830 5831 5832 5833 5834 5834 5834
5774 5776 5778 5779 5780 5783 5786 5787 5788 5791 5792 5792 5792 5793 5795 5796 5798 5799 5800 5801 5802 5803 5804 5805 5807 5808 5809 5811 5812 5814 5815 5817 5819 5820 5821 5823 5824 5825 5826 5828 5829 5830 5830 5830
5769 5771 5773 5775 5776 5781 5782 5783 5785 5786 5787 5788 5788 5790 5791 5793 5794 5795 5796 5797 5798 5799 5800 5801 5803 5804 5805 5807 5808 5809 5811 5813 5814 5815 5817 5818 5820 5821 5822 5823 5824 5825 5825 5825
5765 5768 5769 5772 5775 5776 5777 5778 5780 5781 5782 5783 5784 5786 5787 5788 5790 5791 5792 5793 5794 5795 5796 5797 5798 5800 5801 5802 5804 5805 5806 5808 5809 5811 5812 5813 5815 5816 5817 5818 5819 5820 5820 5820
5759 5762 5764 5766 5768 5770 5772 5773 5775 5776 5778 5779 5780 5782 5783 5784 5786 5787 5788 5789 5790 5791 5792 5793 5794 5795 5796 5797 5799 5800 5801 5803 5804 5806 5807 5808 5810 5811 5812 5813 5814 5814 5815 5815
5754 5756 5758 5761 5763 5765 5767 5768 5770 5772 5773 5774 5776 5777 5779 5780 5781 5782 5783 5784 5785 5786 5787 5788 5789 5790 5792 5793 5794 5795 5796 5798 5799 5800 5802 5803 5804 5805 5806 5808 5809 5809 5810 5810
5748 5751 5753 5755 5758 5760 5762 5764 5766 5767 5769 5770 5771 5773 5774 5775 5776 5777 5778 5779 5780 5781 5782 5783 5784 5785 5787 5788 5788 5790 5791 5792 5793 5795 5796 5797 5798 5799 5800 5802 5803 5803 5804 5804
Wind_Speed
10 9 9 8 9 10 10 10 10 10 11 10 11 11 11 11 11 11 10 11 11 11 11 10 9 9 11 11 11 11 11 10 10 9 9 9 9 8 7 6 6 6 5 5
10 9 9 9 10 10 10 11 11 11 11 11 11 11 12 11 11 11 11 11 11 11 11 11 11 11 12 12 12 12 12 11 10 9 9 9 9 8 8 7 7 6 6 6
9 9 10 10 10 10 10 10 11 11 12 12 11 11 11 11 11 11 10 10 11 12 13 12 12 12 13 13 12 12 12 12 11 10 9 9 9 9 8 7 7 6 6 6
9 10 10 10 10 10 9 10 11 11 11 12 12 11 11 12 12 12 11 11 11 11 13 13 13 13 13 14 13 12 12 12 11 11 10 9 9 9 9 8 7 7 6 6
9 9 9 10 9 10 10 11 11 10 11 12 13 12 11 12 11 12 12 12 12 12 13 13 13 13 13 14 14 13 13 13 12 11 11 10 9 9 8 7 6 6 6 6
9 9 9 9 9 9 10 11 11 10 10 11 11 12 11 11 10 11 12 12 13 13 13 13 13 13 13 14 14 14 14 14 13 12 12 11 10 9 8 7 7 6 6 5
10 10 10 9 9 9 10 11 11 11 10 10 10 11 10 11 11 10 11 12 12 13 14 14 14 14 14 14 14 15 15 14 14 13 12 12 10 9 9 8 7 6 5 5
10 11 10 10 10 9 10 10 11 11 10 10 10 11 9 9 11 11 11 12 12 13 13 13 14 14 14 15 15 15 15 14 14 13 13 12 11 10 9 9 8 7 6 6
10 10 10 10 9 9 10 10 10 12 11 10 9 10 9 9 10 11 11 12 12 13 13 13 14 14 14 15 16 16 14 14 14 14 13 13 12 10 9 9 9 8 7 7
10 10 11 10 10 11 11 11 11 12 12 10 9 9 9 9 10 10 10 11 12 12 13 13 14 15 14 14 15 16 15 14 13 13 13 13 12 11 10 9 9 8 8 7
11 11 11 12 12 12 12 13 12 12 12 12 11 9 8 7 8 9 10 10 11 12 13 13 14 15 15 14 15 15 15 15 13 13 13 13 12 11 10 10 8 9 9 8
11 12 11 11 12 12 12 12 12 12 11 11 12 11 10 9 8 8 9 9 10 11 12 12 14 15 15 15 15 15 14 14 13 13 13 13 12 11 11 10 10 9 9 9
13 13 13 12 13 13 12 11 12 12 13 12 12 11 11 11 9 9 10 9 9 11 12 13 13 15 15 16 15 16 15 14 13 13 13 13 12 11 11 11 11 11 10 11
14 14 14 13 12 13 13 12 12 12 12 12 11 10 10 10 10 9 9 10 9 10 11 13 13 14 15 16 16 16 16 15 15 14 14 14 13 12 12 12 12 12 12 11
15 14 14 14 13 13 13 13 13 13 12 11 10 10 10 10 10 10 10 9 10 10 10 12 13 13 13 14 15 15 16 16 15 15 15 15 15 14 14 13 12 12 12 12
15 14 14 14 14 14 14 13 13 13 13 12 11 10 10 11 12 12 11 11 10 10 10 11 11 11 12 12 14 15 15 16 16 16 16 16 16 15 15 14 13 13 12 12
16 15 15 15 14 14 14 13 13 12 13 13 12 11 11 11 11 12 12 11 11 11 11 11 12 12 12 12 13 14 14 16 16 16 16 16 16 16 15 16 15 14 13 13
17 16 16 16 15 16 13 12 13 13 12 12 12 11 12 12 12 12 12 12 11 12 12 12 13 13 13 13 13 14 14 15 16 17 17 17 17 16 16 16 15 14 14 14
18 18 17 17 17 15 14 13 13 13 13 13 13 13 13 12 13 13 12 12 12 13 12 13 13 13 14 14 14 15 15 15 16 16 17 17 17 16 16 16 16 16 16 16
19 19 19 17 17 16 14 13 13 13 13 13 13 13 12 12 13 13 12 12 12 12 13 13 13 14 14 14 15 15 15 15 16 16 16 17 18 18 18 18 17 17 17 17
20 20 19 18 17 15 14 14 14 13 12 12 13 13 13 12 12 12 12 12 11 12 12 13 13 14 14 15 15 15 16 16 16 17 17 18 19 19 19 18 18 17 17 18
20 19 19 18 18 16 14 14 14 13 13 14 13 13 14 13 13 13 12 12 12 12 13 13 14 14 15 16 16 16 16 17 17 17 18 18 19 19 19 19 18 18 18 18
22 20 18 17 16 15 15 15 14 13 14 14 14 14 14 14 14 13 13 13 13 13 14 14 14 15 15 15 15 16 17 17 18 18 18 18 19 19 19 19 18 18 19 19
23 22 21 19 17 16 16 16 15 14 15 15 15 15 14 15 15 15 14 14 14 14 15 15 15 16 16 16 16 16 17 18 19 19 19 20 20 19 19 19 20 19 19 19
23 22 21 20 18 17 17 17 16 16 16 15 15 15 14 15 16 16 15 15 15 15 16 17 16 16 17 17 16 17 17 18 19 20 20 21 21 21 21 20 20 21 21 20
22 22 21 20 19 19 18 18 17 16 16 15 16 15 15 15 15 15 15 16 16 16 17 17 17 17 17 17 17 18 18 19 19 19 20 21 22 22 23 22 22 22 22 22
Wind_Direction
241 240 238 237 237 235 235 237 238 237 234 230 226 228 230 230 230 231 230 228 224 225 228 229 226 222 214 214 215 216 215 214 215 217 223 226 227 230 238 247 259 270 275 278
244 241 238 239 240 237 236 239 240 240 237 235 229 228 229 229 231 233 236 228 221 223 223 225 222 216 214 214 214 214 213 211 216 222 223 227 228 233 240 248 257 267 270 275
250 243 239 240 241 243 240 242 240 242 240 241 238 230 229 229 230 233 233 227 221 221 220 220 222 217 214 214 213 213 212 212 216 219 221 226 230 236 239 245 255 265 270 276
240 239 238 239 240 240 241 243 242 241 239 234 236 233 231 231 231 232 234 232 225 222 221 222 221 219 217 213 211 214 216 214 214 217 222 227 232 236 237 245 255 263 265 271
239 237 238 238 240 238 237 240 237 235 235 235 237 238 230 234 233 230 232 232 229 224 222 221 219 218 217 214 212 214 218 217 217 222 226 230 234 239 235 243 257 263 264 268
234 233 231 229 233 234 232 233 230 228 231 235 239 239 233 234 231 228 229 231 231 227 223 225 224 221 218 216 214 217 218 220 224 227 230 233 234 236 236 243 254 259 262 263
228 229 227 227 233 233 231 231 230 231 235 235 238 239 235 231 230 231 230 230 230 227 224 225 226 224 222 218 217 219 218 222 226 230 232 233 235 237 237 238 246 251 252 254
226 226 227 228 233 237 235 231 231 235 237 236 236 239 237 231 230 231 232 229 226 224 222 224 226 223 224 222 221 221 220 221 224 226 228 231 236 238 238 239 241 247 252 256
229 229 229 230 233 236 233 229 232 234 239 239 239 235 234 228 228 233 234 230 230 228 223 224 223 225 223 223 221 220 220 223 225 225 226 230 236 236 235 236 237 243 251 256
229 233 229 228 228 232 233 232 235 240 244 242 243 245 243 233 232 236 236 231 229 223 224 224 222 224 222 222 221 221 223 224 225 223 224 227 230 232 234 237 235 241 249 253
231 230 226 229 229 235 236 238 241 241 241 246 246 245 238 232 231 233 231 227 226 221 223 223 222 223 220 219 220 223 224 224 225 224 224 225 227 233 237 240 244 245 248 251
235 235 236 236 237 237 240 241 239 238 246 248 247 244 241 237 235 232 230 227 223 225 224 222 220 222 220 219 221 221 220 220 222 223 223 226 228 232 235 240 246 250 248 249
236 238 239 237 236 236 238 240 239 242 245 247 248 247 239 237 236 234 234 231 227 227 226 223 220 219 219 219 218 217 217 219 222 223 224 226 229 230 235 239 244 247 249 251
237 240 240 240 244 243 240 242 242 243 245 247 246 244 241 237 235 233 234 232 229 226 226 224 222 219 220 220 218 218 219 220 223 227 229 229 231 233 237 240 245 248 251 253
236 241 240 240 240 239 238 240 242 244 244 245 244 245 241 238 236 234 233 232 227 219 219 220 220 217 218 221 220 221 222 224 227 231 233 232 233 234 238 244 248 250 253 257
234 241 244 243 243 239 239 239 241 242 242 241 241 243 243 245 239 236 233 233 230 222 220 221 221 219 221 222 222 222 225 229 230 233 234 233 234 235 239 243 249 251 251 256
235 238 241 243 241 240 239 240 242 243 244 244 244 246 246 244 237 234 231 229 228 224 225 225 224 224 225 224 224 225 227 230 231 233 233 233 234 238 243 247 248 249 251 255
234 236 238 238 237 237 238 240 243 243 244 245 242 241 243 244 241 237 233 231 228 229 230 228 228 227 226 226 227 229 233 236 235 236 235 235 236 239 244 246 247 249 253 257
234 236 236 237 238 237 233 235 239 244 245 247 244 243 244 244 239 238 236 230 231 231 233 234 232 229 230 231 231 232 236 237 239 239 236 235 238 241 244 245 247 251 255 259
232 235 236 238 239 237 234 235 239 243 244 245 244 245 244 242 241 239 239 235 234 233 234 235 235 234 234 234 233 234 237 239 240 241 241 239 241 244 244 246 248 254 258 261
232 234 236 239 239 238 234 237 242 245 246 244 243 242 240 240 240 239 238 238 236 235 236 237 238 239 238 239 238 238 240 239 240 242 243 243 243 244 246 247 249 255 260 260
230 233 237 239 239 237 236 241 245 246 244 242 242 240 239 239 241 241 241 242 242 242 244 244 242 241 240 241 241 240 241 240 241 243 243 244 244 245 248 249 251 255 259 262
233 234 238 241 242 240 235 238 243 244 244 244 243 240 239 242 245 246 246 244 244 245 245 244 243 242 242 243 242 241 240 240 242 244 244 243 244 247 248 250 253 258 261 264
236 235 237 238 237 238 238 239 240 242 244 245 246 244 243 244 244 247 249 248 247 245 244 244 245 243 241 245 246 244 242 242 242 244 246 246 248 248 249 252 256 258 262 266
238 237 238 239 237 238 238 239 242 245 245 245 246 246 246 245 246 247 248 248 248 246 245 246 246 246 245 245 247 247 248 246 245 245 245 247 248 249 250 254 256 258 261 265
235 236 237 239 240 240 240 239 241 245 245 245 247 248 248 248 249 252 252 249 247 246 245 246 247 248 248 250 251 251 250 250 249 248 248 249 250 251 250 253 256 259 260 264